Chamberlain, SD

11:04 PM CDT on April 28, 2017 (GMT -0500)
Chamberlain

Weather History for K9V9 - November, 2013

Change the Weather History Date:

Sunday, November 3, 2013

  Actual Average Record
Temperature  
Mean Temperature 48 °F -  
Max Temperature 59 °F 48 °F 71 °F (2016)
Min Temperature 37 °F 27 °F 17 °F (2006)
Degree Days  
Heating Degree Days 17    
Moisture  
Dew Point 32 °F    
Average Humidity 56    
Maximum Humidity 79    
Minimum Humidity 42    
Precipitation  
Precipitation 0.00 in - - ()
Sea Level Pressure  
Sea Level Pressure 29.65 in    
Wind  
Wind Speed 16 mph (SSW)    
Max Wind Speed 23 mph    
Max Gust Speed 31 mph    
Averages and records for this station are not official NWS values.
T = Trace of Precipitation, MM = Missing Value Source: NWS Daily Summary

Daily Weather History Graph

Daily Weather History Graph

Search for Another Location

Airport or City:

Trip Planner

Search our weather history database for the weather conditions in past years. The results will help you decide how hot, cold, wet, or windy it might be!

Date:

Astronomy

Nov. 03, 2013 Rise Set
Actual Time 7:16 AM CST 5:24 PM CST
Civil Twilight 6:46 AM CST 5:54 PM CST
Nautical Twilight 6:12 AM CST 6:28 PM CST
Astronomical Twilight 5:38 AM CST 7:02 PM CST
Moon 7:22 AM CST (11/3) 5:39 PM CST (11/3)
Length of Visible Light 11h 08m
Length of Day
10h 08m
New Moon, 0% of the Moon is Illuminated
Nov 3
New Moon
Nov 9
First Quarter
Nov 17
Full
Nov 25
Last Quarter
Dec 2
New

Hourly Weather History & Observations

Time (CST) Temp. Windchill Dew Point Humidity Pressure Visibility Wind Dir Wind Speed Gust Speed Precip Events Conditions
12:52 AM 39.0 °F 31.0 °F 28.9 °F 67% 29.84 in - SE 13.8 mph - N/A   Unknown
1:52 AM 39.9 °F 32.1 °F 28.9 °F 65% 29.79 in - SE 13.8 mph - N/A   Unknown
1:52 AM 41.0 °F 32.5 °F 28.9 °F 62% 29.74 in - SSE 17.3 mph 25.3 mph N/A   Unknown
2:52 AM 45.0 °F 37.9 °F 28.9 °F 53% 29.72 in - South 16.1 mph 25.3 mph N/A   Unknown
3:52 AM 46.0 °F 38.5 °F 28.9 °F 51% 29.69 in - South 19.6 mph 28.8 mph N/A   Unknown
4:52 AM 45.0 °F 36.6 °F 28.9 °F 53% 29.66 in - South 21.9 mph 31.1 mph N/A   Unknown
5:52 AM 45.0 °F 36.6 °F 30.0 °F 56% 29.65 in - South 21.9 mph - N/A   Unknown
6:52 AM 44.1 °F 36.5 °F 30.0 °F 58% 29.66 in - South 17.3 mph - N/A   Unknown
7:52 AM 44.1 °F 36.2 °F 30.9 °F 60% 29.64 in - South 18.4 mph - N/A   Unknown
8:52 AM 46.9 °F - 30.9 °F 54% 29.64 in - South 20.7 mph 28.8 mph N/A   Unknown
9:52 AM 50.0 °F - 32.0 °F 50% 29.62 in - SSW 18.4 mph 24.2 mph N/A   Unknown
10:52 AM 53.1 °F - 33.1 °F 47% 29.60 in - SSW 17.3 mph - N/A   Unknown
11:52 AM 57.0 °F - 34.0 °F 42% 29.58 in - South 18.4 mph - N/A   Unknown
12:52 PM 55.9 °F - 33.1 °F 42% 29.57 in - South 23.0 mph 28.8 mph N/A   Unknown
1:52 PM 55.9 °F - 34.0 °F 44% 29.57 in - South 17.3 mph - N/A   Unknown
2:52 PM 57.0 °F - 34.0 °F 42% 29.55 in - South 17.3 mph 24.2 mph N/A   Unknown
3:52 PM 57.0 °F - 35.1 °F 44% 29.56 in - South 16.1 mph 21.9 mph N/A   Unknown
4:52 PM 55.0 °F - 35.1 °F 47% 29.58 in - South 10.4 mph - N/A   Unknown
5:52 PM 48.0 °F - 34.0 °F 58% 29.61 in - SSW 4.6 mph - N/A   Unknown
6:52 PM 45.0 °F 41.8 °F 34.0 °F 65% 29.63 in - WSW 5.8 mph - N/A   Unknown
7:30 PM 48.2 °F - 35.6 °F 62% 29.63 in - NNW 12.7 mph - N/A   Unknown
7:52 PM 48.0 °F - 35.1 °F 61% 29.65 in - NNW 8.1 mph - N/A   Unknown
8:52 PM 45.0 °F 39.7 °F 35.1 °F 68% 29.67 in - NW 10.4 mph - N/A   Unknown
9:52 PM 41.0 °F 35.8 °F 33.1 °F 73% 29.69 in - NW 8.1 mph - N/A   Unknown
10:52 PM 37.9 °F 31.5 °F 32.0 °F 79% 29.71 in - WNW 9.2 mph - N/A   Unknown